Regional Weather Roundup
Issued by NWS Upton, NY

Current Version | Previous Version | Graphics & Text | Print | Product List | Glossary Off
Versions: 1 2 3 4 5 6 7 8 9 10 11 12 13 14 15 16 17 18 19 20 21 22 23 24 25 26 27 28 29 30 31 32 33 34 35 36 37 38 39 40 41 42 43 44 45 46 47 48 49 50

000
ASUS41 KOKX 221205
RWROKX

REGIONAL WEATHER ROUNDUP
NATIONAL WEATHER SERVICE NEW YORK NY
800 AM EDT TUE JUL 22 2014

NOTE: "FAIR" INDICATES FEW OR NO CLOUDS BELOW 12,000 FEET WITH NO
SIGNIFICANT WEATHER AND/OR OBSTRUCTIONS TO VISIBILITY.

NYZ071-072-176-178-NJZ106-104-221300-
NEW YORK CITY METRO AREA


CITY           SKY/WX    TMP DP  RH WIND       PRES   REMARKS
CENTRAL PARK   SUNNY     74  63  68 CALM      30.21R
LAGUARDIA APRT MOSUNNY   76  63  64 CALM      30.17S
KENNEDY INTL   MOSUNNY   75  62  64 SW6       30.19R
NEWARK/LIBERTY MOSUNNY   74  63  68 S5        30.18R
BRNX BOT. GARD   N/A     77  64  65 CALM      30.20R
TETERBORO      SUNNY     75  63  66 CALM      30.17S
$$

NYZ177-179-078>081-221300-
LONG ISLAND NEW YORK

CITY           SKY/WX    TMP DP  RH WIND       PRES   REMARKS
FARMINGDALE    SUNNY     72  63  73 W5        30.18S
ISLIP          MOSUNNY   74  62  66 W6        30.16S
SHIRLEY        SUNNY     73  63  70 W6        30.18S
WESTHAMPTON    SUNNY     72  62  71 W8        30.19S
MONTAUK POINT    N/A     72  65  78 SW5       30.18S
$$

NYZ052-065-067-221300-
HUDSON VALLEY

CITY           SKY/WX    TMP DP  RH WIND       PRES   REMARKS
WHITE PLAINS   SUNNY     71  65  81 W5        30.18S
NEWBURGH       SUNNY     70  66  88 W8        30.19
MONTGOMERY       N/A     69  65  86 SW6       30.18R
POUGHKEEPSIE   SUNNY     72  65  78 CALM      30.16S
ALBANY         MOSUNNY   72  64  76 S7        30.16R
$$

NJZ001-105-106-008-010-013-015-019>022-104-221300-
NEW JERSEY

CITY           SKY/WX    TMP DP  RH WIND       PRES   REMARKS
NEWARK/LIBERTY MOSUNNY   74  63  68 S5        30.18R
TETERBORO      SUNNY     75  63  66 CALM      30.17S
CALDWELL       SUNNY     70  64  81 CALM      30.19S
MORRISTOWN     SUNNY     70  68  94 CALM      30.19R
SOMERVILLE     SUNNY     69  64  84 CALM      30.17S
LINDEN         FAIR      74  64  70 CALM      30.20S
SUSSEX         SUNNY     70  65  84 CALM      30.19S
ANDOVER          N/A     68  66  93 CALM      30.20S
TRENTON        SUNNY     70  64  81 MISG      30.20R
MILLVILLE      SUNNY     72  67  84 CALM      30.21R
ATLANTIC CITY  SUNNY     70  65  84 CALM      30.21R
WRIGHTSTOWN    SUNNY     73  64  74 SW3       30.19R
TOMS RIVER     SUNNY     70  63  78 CALM      30.21R
BELMAR         SUNNY     72  61  68 W3        30.20R
$$

PAZ047>061-062-071-221300-
EASTERN PENNSYLVANIA

CITY           SKY/WX    TMP DP  RH WIND       PRES   REMARKS
PHILADELPHIA   MOSUNNY   73  65  75 CALM      30.20R
ALLENTOWN      SUNNY     71  65  81 CALM      30.20R
SCRANTON       SUNNY     71  63  75 CALM      30.20R
$$

CTZ002-004>006-009-010-012-RIZ004-006-007-MAZ004-011-015-221300-
SOUTHERN NEW ENGLAND
 IN CT

CITY           SKY/WX    TMP DP  RH WIND       PRES   REMARKS
BRADLEY INTL   MOSUNNY   71  64  78 S5        30.15S
HARTFORD       SUNNY     70  64  81 S3        30.16R
DANBURY        SUNNY     71  64  78 W7        30.19S
WTRBRY/OXFORD  MOSUNNY   68  63  83 VRB3      30.20R
BRIDGEPORT     SUNNY     73  66  78 W6        30.17S
MERIDEN        SUNNY     70  65  84 VRB3      30.17R
NEW HAVEN      SUNNY     74  67  78 W6        30.17S
CHESTER        FAIR      72  66  83 W6        30.18S
GROTON         SUNNY     70  67  90 SW3       30.16S
WILLIMANTIC    SUNNY     66  61  84 CALM      30.18R

 IN RI

CITY           SKY/WX    TMP DP  RH WIND       PRES   REMARKS
PROVIDENCE     MOSUNNY   71  63  75 W8        30.16S
BLOCK ISLAND   SUNNY     72  64  78 W10       30.17S
WESTERLY       SUNNY     70  65  84 VRB3      30.17S

 IN MA

CITY           SKY/WX    TMP DP  RH WIND       PRES   REMARKS
BOSTON         SUNNY     71  63  75 SW7       30.14S
WORCESTER      SUNNY     68  62  81 W9        30.18S
WESTFIELD      SUNNY     68  63  84 S3        30.16S
PROVINCETOWN   SUNNY     64  64 100 S8        30.16S
NANTUCKET      MOSUNNY   66  64  93 W3        30.17S
$$

ANZ330-335-338-340-345-350-353-355-221300-
COASTAL MARINE OBSERVATIONS


STATION/POSITION TIME  SKY/WX   TEMP    WIND        PRES    VSBY  WAVE
                                AIR SEA DIR/SP/G                  HT/PER
                 (UTC)          (F)     (DEG/KT/KT) (MB)    (MI)  (FT/S)
NY HARB ENTRANCE NOT AVBL
4S FIRE IS       NOT AVBL
23SW MTP         1200            71 70              1021.5          2/ 7
HUDSON CANYON    1200            72 72  360/  2/  4 1022.6          2/ 7
EXECUTION ROCKS  1200            74 71  210/  6/  6   N/A
WESTERN LI SOUND 1200            72     230/  6/  6   N/A           0
CENTRAL LI SOUND 1100            72 72  240/  8/ 10   N/A           0
EASTERN LI SOUND 1100            74 66   CALM  /  2   N/A
ROBBINS REEF     1200            72     250/  5/  6   N/A
$$


>>>>>>>>>>>>>>>>>>>>>>>>>>>> KEY <<<<<<<<<<<<<<<<<<<<<<<<<<<
>                                                          <
>     SKY/WX - SKY CONDITION/PRESENT WEATHER               <
>     TMP    - TEMPERATURE IN FAHRENHEIT                   <
>     DP     - DEWPOINT IN FAHRENHEIT                      <
>     RH     - RELATIVE HUMIDITY IN PERCENT                <
>     WIND   - DIRECTION AND SPEED IN MPH                  <
>     PRES   - MEAN SEA LEVEL PRESSURE IN INCHES OF HG     <
>     WCI    - WIND CHILL INDEX                            <
>     VSB    - VISIBILITY IN MILES                         <
>     HX     - HEAT INDEX                                  <
>     TC     - TEMPERATURE IN CELSIUS                      <
>     VRB    - VARIABLE WIND DIRECTION                     <
>                                                          <
>>>>>>>>>>>>>>>>>>>>>>>>>>>> KEY <<<<<<<<<<<<<<<<<<<<<<<<<<<




USA.gov is the U.S. government's official web portal to all federal, state and local government web resources and services.